GW5001 Weather Reports


time (UTC)temp
C
wind
direction
speed
KPH
gust
KPH
rain 1hr
cm
rain 24hr
cm
rain mn
cm
humidity
%
barometer
mb
20260505130234 11 53 1.6 3.2 0.00 0.00 0.00 66 1009.0
20260505124733 10 74 4.8 6.4 0.00 0.00 0.00 68 1009.0
20260505124234 11 56 8.0 9.7 0.00 0.00 0.00 68 1009.0
20260505123733 11 29 4.8 6.4 0.00 0.00 0.00 68 1009.0
20260505123234 12 20 4.8 6.4 0.00 0.00 0.00 64 1009.0
20260505122734 12 128 3.2 8.0 0.00 0.00 0.00 62 1008.0
20260505122232 12 127 4.8 11.3 0.00 0.00 0.00 61 1008.0
20260505121731 11 149 12.9 16.1 0.00 0.00 0.00 62 1008.0
20260505121234 12 143 11.3 14.5 0.00 0.00 0.00 62 1008.0
20260505120734 12 151 11.3 16.1 0.00 0.00 0.00 62 1008.0
20260505120231 12 144 14.5 17.7 0.00 0.00 0.00 62 1008.0
20260505115733 12 149 14.5 16.1 0.00 0.00 0.00 61 1008.0
20260505115232 12 154 12.9 14.5 0.00 0.00 0.00 60 1008.0
20260505114734 12 150 8.0 9.7 0.00 0.00 0.00 61 1008.0
20260505114234 12 153 8.0 9.7 0.00 0.00 0.00 60 1008.0
20260505113731 12 141 6.4 9.7 0.00 0.00 0.00 60 1008.0
20260505113235 12 142 8.0 9.7 0.00 0.00 0.00 60 1008.0
20260505112733 12 105 3.2 3.2 0.00 0.00 0.00 60 1007.0
20260505112233 12 157 8.0 8.0 0.00 0.00 0.00 60 1007.0
20260505111734 12 170 6.4 9.7 0.00 0.00 0.00 59 1007.0
20260505111232 12 151 6.4 9.7 0.00 0.00 0.00 59 1007.0
20260505110734 12 165 8.0 9.7 0.00 0.00 0.00 60 1007.0
20260505110234 12 171 9.7 11.3 0.00 0.00 0.00 60 1007.0
20260505101733 12 188 8.0 11.3 0.00 0.00 0.00 61 1007.0
20260505101231 12 182 11.3 12.9 0.00 0.00 0.00 61 1007.0
20260505100733 12 162 11.3 14.5 0.00 0.00 0.00 61 1006.0
20260505100232 12 168 9.7 11.3 0.00 0.00 0.00 60 1006.0
20260505095732 12 179 8.0 9.7 0.00 0.00 0.00 59 1006.0
20260505095231 12 176 9.7 11.3 0.00 0.00 0.00 59 1006.0
20260505094732 12 176 8.0 9.7 0.00 0.00 0.00 60 1006.0
20260505094231 12 185 6.4 9.7 0.00 0.00 0.00 59 1006.0
20260505093732 12 188 6.4 9.7 0.00 0.00 0.00 58 1006.0
20260505093234 13 192 6.4 9.7 0.00 0.00 0.00 59 1006.0
20260505092733 13 174 8.0 8.0 0.00 0.00 0.00 59 1006.0
20260505092232 13 200 4.8 4.8 0.00 0.00 0.00 57 1006.0
20260505091731 14 170 4.8 4.8 0.00 0.00 0.00 55 1006.0
20260505091231 14 202 6.4 6.4 0.00 0.00 0.00 54 1006.0
20260505090731 14 179 8.0 9.7 0.00 0.00 0.00 54 1006.0
20260505090231 14 169 8.0 9.7 0.00 0.00 0.00 54 1006.0
20260505085731 13 154 11.3 14.5 0.00 0.00 0.00 55 1006.0
20260505085232 13 183 6.4 6.4 0.00 0.00 0.00 57 1006.0
20260505084732 13 157 4.8 4.8 0.00 0.00 0.00 56 1006.0
20260505084231 13 182 4.8 4.8 0.00 0.00 0.00 56 1005.0
20260505083731 13 256 1.6 1.6 0.00 0.00 0.00 56 1005.0
20260505083231 13 224 4.8 6.4 0.00 0.00 0.00 56 1005.0
20260505082731 14 215 3.2 4.8 0.00 0.00 0.00 55 1005.0
20260505082232 15 209 8.0 8.0 0.00 0.00 0.00 54 1005.0
20260505081735 15 247 8.0 9.7 0.00 0.00 0.00 52 1005.0
20260505081232 15 249 8.0 9.7 0.00 0.00 0.00 50 1005.0
20260505080733 15 263 11.3 14.5 0.00 0.00 0.00 51 1005.0
20260505080233 15 199 1.6 4.8 0.00 0.00 0.00 51 1005.0
20260505075731 15 233 8.0 11.3 0.00 0.00 0.00 50 1005.0
20260505075236 15 219 4.8 6.4 0.00 0.00 0.00 50 1005.0
20260505074733 15 246 8.0 9.7 0.00 0.00 0.00 49 1005.0
20260505074232 15 214 8.0 9.7 0.00 0.00 0.00 50 1005.0
20260505073731 16 220 6.4 8.0 0.00 0.00 0.00 49 1005.0
20260505073232 16 237 9.7 11.3 0.00 0.00 0.00 47 1005.0
20260505072734 16 249 11.3 12.9 0.00 0.00 0.00 48 1005.0
20260505072231 16 239 9.7 9.7 0.00 0.00 0.00 46 1005.0
20260505071736 16 249 4.8 4.8 0.00 0.00 0.00 48 1005.0
20260505071232 16 269 1.6 4.8 0.00 0.00 0.00 48 1005.0
20260505070735 16 243 9.7 11.3 0.00 0.00 0.00 46 1005.0
20260505070231 16 236 9.7 12.9 0.00 0.00 0.00 45 1005.0
20260505065732 16 185 4.8 4.8 0.00 0.00 0.00 47 1005.0
20260505065232 16 228 3.2 6.4 0.00 0.00 0.00 44 1005.0
20260505064731 15 261 6.4 8.0 0.00 0.00 0.00 49 1005.0
20260505064232 16 196 3.2 6.4 0.00 0.00 0.00 47 1004.0
20260505063731 16 226 1.6 4.8 0.00 0.00 0.00 47 1004.0
20260505063232 16 228 6.4 6.4 0.00 0.00 0.00 46 1004.0
20260505062732 16 26 6.4 8.0 0.00 0.00 0.00 46 1005.0
20260505062232 17 203 3.2 4.8 0.00 0.00 0.00 45 1004.0
20260505061732 17 131 1.6 3.2 0.00 0.00 0.00 45 1005.0
20260505061231 18 236 9.7 11.3 0.00 0.00 0.00 42 1004.0
20260505060731 18 268 6.4 9.7 0.00 0.00 0.00 40 1004.0
20260505060232 18 267 12.9 14.5 0.00 0.00 0.00 39 1004.0
20260505055733 17 280 6.4 6.4 0.00 0.00 0.00 41 1004.0
20260505055234 17 241 3.2 4.8 0.00 0.00 0.00 42 1004.0
20260505054732 18 235 8.0 9.7 0.00 0.00 0.00 42 1004.0
20260505054231 18 242 3.2 4.8 0.00 0.00 0.00 41 1004.0
20260505053732 18 258 11.3 14.5 0.00 0.00 0.00 38 1004.0
20260505053232 18 57 0.0 1.6 0.00 0.00 0.00 39 1004.0
20260505052731 18 35 3.2 4.8 0.00 0.00 0.00 40 1004.0
20260505052233 18 279 6.4 9.7 0.00 0.00 0.00 39 1004.0
20260505051732 18 256 3.2 3.2 0.00 0.00 0.00 40 1004.0
20260505051232 18 246 6.4 6.4 0.00 0.00 0.00 39 1004.0
20260505050732 18 238 4.8 6.4 0.00 0.00 0.00 39 1004.0
20260505050231 18 217 4.8 6.4 0.00 0.00 0.00 40 1004.0
20260505041732 21 300 4.8 6.4 0.00 0.00 0.00 34 1004.0
20260505041231 21 309 6.4 8.0 0.00 0.00 0.00 33 1004.0
20260505040731 21 314 8.0 9.7 0.00 0.00 0.00 33 1004.0
20260505040231 21 312 11.3 12.9 0.00 0.00 0.00 33 1004.0
20260505035731 21 314 11.3 40.2 0.00 0.00 0.00 33 1004.0
20260505035233 21 315 11.3 40.2 0.00 0.00 0.00 33 1004.0
20260505034732 22 314 17.7 45.1 0.00 0.00 0.00 32 1004.0
20260505034232 22 315 16.1 45.1 0.00 0.00 0.00 32 1004.0
20260505033732 22 315 19.3 51.5 0.00 0.00 0.00 32 1004.0
20260505033232 22 313 11.3 14.5 0.00 0.00 0.00 32 1004.0
20260505032731 22 314 14.5 43.5 0.00 0.00 0.00 32 1004.0
20260505032232 22 313 16.1 48.3 0.00 0.00 0.00 32 1004.0
20260505031232 23 313 17.7 45.1 0.00 0.00 0.00 31 1004.0
20260505030731 23 315 20.9 46.7 0.00 0.00 0.00 31 1003.0
20260505030232 23 313 14.5 17.7 0.00 0.00 0.00 30 1004.0
20260505025231 23 315 17.7 48.3 0.00 0.00 0.00 30 1004.0
20260505022232 24 316 16.1 30.6 0.00 0.00 0.00 29 1003.0
20260505021731 25 316 20.9 37.0 0.00 0.00 0.00 29 1003.0
20260505021231 25 320 16.1 30.6 0.00 0.00 0.00 29 1003.0
20260505020731 25 315 16.1 19.3 0.00 0.00 0.00 30 1003.0
20260505020231 25 314 14.5 17.7 0.00 0.00 0.00 29 1003.0
20260505015732 25 317 17.7 22.5 0.00 0.00 0.00 29 1003.0
20260505015231 25 315 19.3 24.1 0.00 0.00 0.00 28 1003.0
20260505014731 25 320 19.3 24.1 0.00 0.00 0.00 28 1003.0
20260505014231 25 314 17.7 20.9 0.00 0.00 0.00 28 1003.0
20260505013733 25 314 19.3 20.9 0.00 0.00 0.00 28 1003.0
20260505013231 25 314 16.1 20.9 0.00 0.00 0.00 27 1003.0
20260505012731 25 305 12.9 17.7 0.00 0.00 0.00 27 1003.0
20260505012232 26 308 19.3 30.6 0.00 0.00 0.00 26 1003.0
20260505011731 26 306 17.7 24.1 0.00 0.00 0.00 26 1003.0
20260505011231 26 316 16.1 20.9 0.00 0.00 0.00 25 1003.0
20260505010731 26 312 17.7 20.9 0.00 0.00 0.00 24 1003.0
20260505010232 26 303 14.5 17.7 0.00 0.00 0.00 24 1003.0
20260505005731 26 309 17.7 30.6 0.00 0.00 0.00 24 1004.0
20260505005231 26 312 17.7 22.5 0.00 0.00 0.00 23 1004.0
20260505004733 26 315 14.5 19.3 0.00 0.00 0.00 24 1004.0
20260505004231 26 313 24.1 35.4 0.00 0.00 0.00 23 1004.0
20260505003732 26 314 17.7 27.4 0.00 0.00 0.00 23 1004.0
20260505003232 26 313 19.3 27.4 0.00 0.00 0.00 24 1004.0
20260505002732 26 317 22.5 25.7 0.00 0.00 0.00 24 1004.0
20260505002232 26 306 16.1 22.5 0.00 0.00 0.00 24 1004.0
20260505001732 26 313 17.7 19.3 0.00 0.00 0.00 24 1004.0
20260505001231 26 313 17.7 27.4 0.00 0.00 0.00 25 1004.0
20260505000732 25 299 14.5 16.1 0.00 0.00 0.00 24 1004.0
20260505000233 26 311 17.7 33.8 0.00 0.00 0.00 25 1004.0
20260504235732 25 317 20.9 30.6 0.00 0.00 0.00 26 1004.0
20260504235231 25 306 16.1 19.3 0.00 0.00 0.00 26 1004.0
20260504234733 25 294 19.3 22.5 0.00 0.00 0.00 26 1004.0
20260504234231 25 309 17.7 35.4 0.00 0.00 0.00 28 1004.0
20260504233731 25 315 20.9 30.6 0.00 0.00 0.00 28 1004.0
20260504233232 25 307 17.7 25.7 0.00 0.00 0.00 29 1004.0
20260504232732 25 287 20.9 29.0 0.00 0.00 0.00 30 1004.0
20260504232231 25 304 17.7 25.7 0.00 0.00 0.00 29 1004.0
20260504231731 25 291 16.1 19.3 0.00 0.00 0.00 30 1004.0
20260504231232 25 310 16.1 22.5 0.00 0.00 0.00 30 1004.0
20260504230731 25 305 12.9 16.1 0.00 0.00 0.00 31 1005.0
20260504230231 25 298 8.0 12.9 0.00 0.00 0.00 31 1005.0
20260504225731 25 313 14.5 19.3 0.00 0.00 0.00 31 1005.0
20260504225231 25 306 12.9 17.7 0.00 0.00 0.00 31 1005.0
20260504224731 25 304 12.9 19.3 0.00 0.00 0.00 31 1005.0
20260504224231 25 279 12.9 17.7 0.00 0.00 0.00 32 1005.0
20260504223732 25 302 16.1 20.9 0.00 0.00 0.00 31 1005.0
20260504223232 25 296 12.9 17.7 0.00 0.00 0.00 32 1005.0
20260504222732 25 309 12.9 14.5 0.00 0.00 0.00 30 1005.0
20260504222232 25 280 17.7 20.9 0.00 0.00 0.00 33 1005.0
20260504221731 25 281 19.3 25.7 0.00 0.00 0.00 31 1005.0
20260504221232 25 346 12.9 17.7 0.00 0.00 0.00 32 1005.0
20260504220732 24 314 9.7 14.5 0.00 0.00 0.00 33 1005.0
20260504220231 24 298 12.9 19.3 0.00 0.00 0.00 31 1005.0
20260504215731 24 320 14.5 22.5 0.00 0.00 0.00 32 1006.0
20260504215231 24 311 12.9 14.5 0.00 0.00 0.00 35 1006.0
20260504214731 24 312 11.3 14.5 0.00 0.00 0.00 33 1006.0
20260504214232 24 311 12.9 14.5 0.00 0.00 0.00 34 1006.0
20260504213731 24 312 14.5 17.7 0.00 0.00 0.00 32 1006.0
20260504213232 23 311 16.1 17.7 0.00 0.00 0.00 32 1006.0
20260504212732 23 311 16.1 17.7 0.00 0.00 0.00 33 1006.0
20260504212232 23 312 12.9 14.5 0.00 0.00 0.00 36 1006.0
20260504211732 23 312 9.7 12.9 0.00 0.00 0.00 35 1006.0
20260504211232 23 313 14.5 17.7 0.00 0.00 0.00 36 1006.0
20260504210732 23 313 12.9 17.7 0.00 0.00 0.00 36 1006.0
20260504210232 23 313 14.5 17.7 0.00 0.00 0.00 36 1006.0
20260504205731 23 313 11.3 17.7 0.00 0.00 0.00 34 1006.0
20260504205231 23 269 16.1 20.9 0.00 0.00 0.00 37 1006.0
20260504204732 23 299 12.9 16.1 0.00 0.00 0.00 36 1007.0
20260504204232 23 304 12.9 14.5 0.00 0.00 0.00 36 1007.0
20260504203732 22 321 12.9 19.3 0.00 0.00 0.00 36 1007.0
20260504203231 22 306 14.5 16.1 0.00 0.00 0.00 35 1007.0
20260504202738 22 301 11.3 14.5 0.00 0.00 0.00 36 1007.0
20260504202232 22 310 14.5 22.5 0.00 0.00 0.00 37 1007.0
20260504201731 22 0 12.9 16.1 0.00 0.00 0.00 34 1007.0
20260504201232 22 320 12.9 20.9 0.00 0.00 0.00 35 1007.0
20260504200732 22 322 12.9 20.9 0.00 0.00 0.00 36 1007.0
20260504200232 22 329 12.9 19.3 0.00 0.00 0.00 36 1007.0
20260504195732 22 322 11.3 14.5 0.00 0.00 0.00 38 1007.0
20260504195232 22 335 11.3 16.1 0.00 0.00 0.00 37 1007.0
20260504194733 22 324 11.3 17.7 0.00 0.00 0.00 39 1007.0
20260504194232 21 308 11.3 17.7 0.00 0.00 0.00 37 1007.0
20260504193733 21 321 6.4 16.1 0.00 0.00 0.00 37 1007.0
20260504193231 21 136 11.3 14.5 0.00 0.00 0.00 38 1007.0
20260504192731 21 136 14.5 17.7 0.00 0.00 0.00 39 1007.0
20260504192231 21 142 6.4 12.9 0.00 0.00 0.00 38 1008.0
20260504191732 21 156 16.1 20.9 0.00 0.00 0.00 39 1008.0
20260504191232 21 138 12.9 14.5 0.00 0.00 0.00 41 1008.0
20260504190734 21 141 12.9 17.7 0.00 0.00 0.00 41 1008.0
20260504190234 21 142 14.5 29.0 0.00 0.00 0.00 40 1008.0
20260504185732 21 341 8.0 14.5 0.00 0.00 0.00 41 1008.0
20260504185234 20 302 9.7 12.9 0.00 0.00 0.00 42 1008.0
20260504184732 20 303 9.7 14.5 0.00 0.00 0.00 42 1008.0
20260504184231 20 299 12.9 14.5 0.00 0.00 0.00 42 1008.0
20260504183733 20 311 12.9 17.7 0.00 0.00 0.00 44 1008.0
20260504183234 20 311 8.0 9.7 0.00 0.00 0.00 43 1008.0
20260504182231 20 311 11.3 16.1 0.00 0.00 0.00 46 1008.0
20260504181233 19 316 12.9 14.5 0.00 0.00 0.00 46 1008.0
20260504180731 19 347 6.4 11.3 0.00 0.00 0.00 47 1008.0
20260504180231 19 306 11.3 14.5 0.00 0.00 0.00 48 1008.0
20260504175733 18 303 8.0 14.5 0.00 0.00 0.00 48 1009.0
20260504175232 18 257 6.4 11.3 0.00 0.00 0.00 49 1009.0
20260504174733 18 290 12.9 24.1 0.00 0.00 0.00 48 1009.0
20260504174231 18 189 17.7 25.7 0.00 0.00 0.00 47 1009.0
20260504173732 18 253 11.3 14.5 0.00 0.00 0.00 49 1009.0
20260504173231 18 268 11.3 17.7 0.00 0.00 0.00 48 1009.0
20260504172733 18 333 8.0 11.3 0.00 0.00 0.00 48 1009.0
20260504172232 18 283 6.4 11.3 0.00 0.00 0.00 47 1009.0
20260504171731 17 309 8.0 12.9 0.00 0.00 0.00 48 1009.0
20260504171234 17 288 6.4 14.5 0.00 0.00 0.00 48 1009.0
20260504170731 17 320 8.0 11.3 0.00 0.00 0.00 49 1009.0
20260504170232 17 288 6.4 9.7 0.00 0.00 0.00 51 1009.0
20260504160231 16 257 8.0 9.7 0.00 0.00 0.00 54 1009.0
20260504150732 14 135 1.6 3.2 0.00 0.00 0.00 54 1009.0
20260504150233 14 118 3.2 6.4 0.00 0.00 0.00 54 1009.0
20260504141231 12 75 4.8 6.4 0.00 0.00 0.00 59 1009.0
20260504140733 12 126 3.2 4.8 0.00 0.00 0.00 61 1009.0
20260504140231 11 135 3.2 8.0 0.00 0.00 0.00 64 1009.0